When you browse on this site, cookies collect data to enhance your experience and personalize the content and advertising you see.
Visit our Privacy Policy to learn more. By continuing to use the site, you agree to this use of cookies and data.
  • In United Kingdom
  • List of Countries
  • For 7 days
  • Water Temperature
  • Weather Map
  • Weather Widgets
  • user-avatar
    Login

    Hourly Weather Pekhy

    Today, 22 September, Sunday

    Time Temperature Precipitation Wind Pressure Humidity
    00:00 +11°C° 0 mm 3 mps 750 mmHg 79%
    01:00 +10°C° 0 mm 3 mps 749 mmHg 84%
    02:00 +9°C° 0 mm 3 mps 749 mmHg 89%
    03:00 +9°C° 0 mm 3 mps 749 mmHg 91%
    04:00 +9°C° 0 mm 3 mps 749 mmHg 92%
    05:00 +8°C° 0 mm 3 mps 749 mmHg 94%
    06:00 +9°C° 0 mm 3 mps 749 mmHg 90%
    07:00 +10°C° 0 mm 3 mps 749 mmHg 87%
    08:00 +11°C° 0 mm 4 mps 749 mmHg 83%
    09:00 +13°C° 0 mm 4 mps 749 mmHg 77%
    10:00 +15°C° 0 mm 4 mps 749 mmHg 70%
    11:00 +17°C° 0 mm 4 mps 749 mmHg 64%
    12:00 +19°C° 0 mm 4 mps 749 mmHg 60%
    13:00 +20°C° 0 mm 4 mps 748 mmHg 56%
    14:00 +21°C° 0 mm 4 mps 748 mmHg 52%
    15:00 +20°C° 0 mm 3 mps 748 mmHg 54%
    16:00 +20°C° 0 mm 3 mps 747 mmHg 56%
    17:00 +20°C° 0 mm 2 mps 747 mmHg 58%
    18:00 +18°C° 0 mm 2 mps 747 mmHg 63%
    19:00 +16°C° 0 mm 2 mps 747 mmHg 69%
    20:00 +14°C° 0 mm 1 mps 747 mmHg 74%
    21:00 +14°C° 0 mm 1 mps 747 mmHg 76%
    22:00 +13°C° 0 mm 1 mps 747 mmHg 78%
    23:00 +13°C° 0 mm 1 mps 747 mmHg 80%

    Tomorrow, 23 September, Monday

    Time Temperature Precipitation Wind Pressure Humidity
    00:00 +12°C° 0 mm 1 mps 747 mmHg 82%
    01:00 +12°C° 0 mm 1 mps 747 mmHg 84%
    02:00 +11°C° 0 mm 1 mps 748 mmHg 87%
    03:00 +10°C° 0 mm 2 mps 748 mmHg 89%
    04:00 +9°C° 0 mm 2 mps 748 mmHg 92%
    05:00 +9°C° 0 mm 3 mps 748 mmHg 95%
    06:00 +9°C° 0 mm 3 mps 748 mmHg 93%
    07:00 +8°C° 0 mm 4 mps 748 mmHg 91%
    08:00 +10°C° 0 mm 4 mps 748 mmHg 89%
    09:00 +11°C° 0 mm 4 mps 748 mmHg 84%
    10:00 +12°C° 0 mm 4 mps 748 mmHg 80%
    11:00 +13°C° 0 mm 4 mps 748 mmHg 76%
    12:00 +14°C° 0 mm 4 mps 748 mmHg 73%
    13:00 +14°C° 0 mm 4 mps 748 mmHg 71%
    14:00 +15°C° 0 mm 4 mps 748 mmHg 68%
    15:00 +15°C° 0 mm 4 mps 747 mmHg 68%
    16:00 +15°C° 0 mm 4 mps 747 mmHg 69%
    17:00 +15°C° 0 mm 4 mps 747 mmHg 69%
    18:00 +13°C° 0 mm 4 mps 747 mmHg 75%
    19:00 +12°C° 0 mm 3 mps 747 mmHg 80%
    20:00 +10°C° 0 mm 3 mps 748 mmHg 85%
    21:00 +9°C° 0 mm 3 mps 748 mmHg 87%
    22:00 +9°C° 0 mm 3 mps 748 mmHg 89%
    23:00 +8°C° 0 mm 3 mps 748 mmHg 91%

    Day after tomorrow, 24 September, Tuesday

    Time Temperature Precipitation Wind Pressure Humidity
    00:00 +8°C° 0 mm 3 mps 748 mmHg 92%
    01:00 +8°C° 0 mm 3 mps 748 mmHg 93%
    02:00 +7°C° 0 mm 2 mps 748 mmHg 95%
    03:00 +7°C° 0 mm 2 mps 747 mmHg 95%
    04:00 +7°C° 0 mm 2 mps 747 mmHg 95%
    05:00 +7°C° 0 mm 2 mps 747 mmHg 95%
    06:00 +7°C° 0 mm 2 mps 747 mmHg 91%
    07:00 +8°C° 0 mm 2 mps 747 mmHg 86%
    08:00 +9°C° 0 mm 3 mps 747 mmHg 82%
    09:00 +11°C° 0 mm 3 mps 747 mmHg 75%
    10:00 +13°C° 0 mm 3 mps 747 mmHg 68%
    11:00 +17°C° 0 mm 3 mps 747 mmHg 60%
    12:00 +18°C° 0 mm 3 mps 746 mmHg 57%
    13:00 +19°C° 0 mm 3 mps 746 mmHg 53%
    14:00 +20°C° 0 mm 3 mps 746 mmHg 49%
    15:00 +20°C° 0 mm 3 mps 745 mmHg 51%
    16:00 +19°C° 0 mm 3 mps 745 mmHg 53%
    17:00 +19°C° 0 mm 3 mps 745 mmHg 55%
    18:00 +17°C° 0 mm 3 mps 745 mmHg 61%
    19:00 +14°C° 0 mm 3 mps 744 mmHg 67%
    20:00 +12°C° 0 mm 3 mps 744 mmHg 73%
    21:00 +11°C° 0 mm 3 mps 744 mmHg 75%
    22:00 +11°C° 0 mm 3 mps 744 mmHg 78%
    23:00 +10°C° 0 mm 3 mps 744 mmHg 80%

    25 September, Wednesday

    Time Temperature Precipitation Wind Pressure Humidity
    00:00 +10°C° 0 mm 3 mps 744 mmHg 81%
    01:00 +10°C° 0 mm 3 mps 743 mmHg 82%
    02:00 +9°C° 0 mm 3 mps 743 mmHg 82%
    03:00 +9°C° 0 mm 3 mps 743 mmHg 82%
    04:00 +9°C° 0 mm 3 mps 742 mmHg 81%
    05:00 +9°C° 0 mm 3 mps 742 mmHg 80%
    06:00 +10°C° 0 mm 3 mps 742 mmHg 77%
    07:00 +12°C° 0 mm 3 mps 742 mmHg 74%
    08:00 +13°C° 0 mm 4 mps 741 mmHg 71%
    09:00 +14°C° 0 mm 4 mps 741 mmHg 68%
    10:00 +15°C° 0 mm 4 mps 742 mmHg 65%
    11:00 +17°C° 0 mm 5 mps 742 mmHg 63%
    12:00 +18°C° 0.1 mm 4 mps 741 mmHg 66%
    13:00 +18°C° 0.1 mm 4 mps 741 mmHg 69%
    14:00 +17°C° 0.1 mm 4 mps 741 mmHg 72%
    15:00 +17°C° 0.1 mm 4 mps 741 mmHg 75%
    16:00 +17°C° 0.1 mm 4 mps 740 mmHg 79%
    17:00 +15°C° 0.1 mm 4 mps 740 mmHg 82%
    18:00 +15°C° 0.2 mm 4 mps 740 mmHg 84%
    19:00 +15°C° 0.2 mm 4 mps 740 mmHg 86%
    20:00 +14°C° 0.2 mm 4 mps 740 mmHg 88%
    21:00 +14°C° 0.2 mm 4 mps 740 mmHg 89%
    22:00 +14°C° 0.2 mm 3 mps 740 mmHg 91%
    23:00 +14°C° 0.2 mm 3 mps 740 mmHg 92%

    26 September, Thursday

    Time Temperature Precipitation Wind Pressure Humidity
    00:00 +14°C° 0 mm 3 mps 740 mmHg 91%
    01:00 +14°C° 0 mm 3 mps 740 mmHg 91%
    02:00 +13°C° 0 mm 3 mps 740 mmHg 90%
    03:00 +13°C° 0 mm 3 mps 740 mmHg 91%
    04:00 +13°C° 0 mm 3 mps 740 mmHg 92%
    05:00 +12°C° 0 mm 3 mps 741 mmHg 94%
    06:00 +12°C° 0 mm 4 mps 741 mmHg 92%
    07:00 +13°C° 0 mm 4 mps 741 mmHg 90%
    08:00 +13°C° 0 mm 5 mps 741 mmHg 89%
    09:00 +13°C° 0 mm 5 mps 742 mmHg 84%
    10:00 +14°C° 0 mm 5 mps 742 mmHg 79%
    11:00 +15°C° 0 mm 5 mps 742 mmHg 74%
    12:00 +15°C° 0.3 mm 5 mps 742 mmHg 73%
    13:00 +15°C° 0.3 mm 5 mps 742 mmHg 72%
    14:00 +16°C° 0.3 mm 5 mps 742 mmHg 70%
    15:00 +15°C° 0.3 mm 5 mps 742 mmHg 74%
    16:00 +14°C° 0.3 mm 5 mps 742 mmHg 77%
    17:00 +14°C° 0.3 mm 4 mps 742 mmHg 80%
    18:00 +13°C° 0 mm 4 mps 743 mmHg 83%
    19:00 +12°C° 0 mm 3 mps 743 mmHg 86%
    20:00 +13°C° 0 mm 2 mps 743 mmHg 89%
    21:00 +12°C° 0 mm 3 mps 743 mmHg 89%
    22:00 +11°C° 0 mm 3 mps 743 mmHg 90%
    23:00 +11°C° 0 mm 4 mps 744 mmHg 90%

    27 September, Friday

    Time Temperature Precipitation Wind Pressure Humidity
    00:00 +11°C° 0 mm 4 mps 744 mmHg 91%
    01:00 +11°C° 0 mm 4 mps 744 mmHg 93%
    02:00 +11°C° 0 mm 4 mps 744 mmHg 95%
    03:00 +11°C° 0 mm 4 mps 744 mmHg 94%
    04:00 +11°C° 0 mm 4 mps 744 mmHg 94%
    05:00 +11°C° 0 mm 4 mps 744 mmHg 94%
    06:00 +11°C° 0 mm 4 mps 744 mmHg 92%
    07:00 +11°C° 0 mm 3 mps 745 mmHg 91%
    08:00 +12°C° 0 mm 3 mps 745 mmHg 89%
    09:00 +12°C° 0.1 mm 3 mps 745 mmHg 88%
    10:00 +13°C° 0.1 mm 2 mps 745 mmHg 86%
    11:00 +13°C° 0.1 mm 2 mps 746 mmHg 84%
    12:00 +13°C° 0.2 mm 1 mps 746 mmHg 85%
    13:00 +13°C° 0.2 mm 1 mps 746 mmHg 86%
    14:00 +13°C° 0.2 mm 1 mps 746 mmHg 86%
    15:00 +13°C° 0 mm 1 mps 746 mmHg 86%
    16:00 +13°C° 0 mm 1 mps 746 mmHg 86%
    17:00 +12°C° 0 mm 0 mps 746 mmHg 86%
    18:00 +12°C° 0 mm 0 mps 746 mmHg 87%
    19:00 +12°C° 0 mm 0 mps 746 mmHg 88%
    20:00 +12°C° 0 mm 0 mps 747 mmHg 88%
    21:00 +13°C° 0 mm 1 mps 747 mmHg 88%
    22:00 +12°C° 0 mm 1 mps 747 mmHg 88%
    23:00 +12°C° 0 mm 2 mps 747 mmHg 88%
    Show more